Location: *
(46.0770°N, 1.6444°E)
Time: 01:56:53
(UTC+00:00)

Cosmos 407 Rocket - Pass Details

Date: 16 September 2019
Orbit: 744 x 786 km, 74.0° (Epoch: 18 October)

Event Time Altitude Azimuth Distance (km) Brightness Sun altitude
Rises 19:25:32 0° 343° (NNW) 3,208 7.3 -14.7°
Reaches altitude 10° 19:28:02 10° 350° (N) 2,275 6.4 -15.1°
Maximum altitude 19:32:56 44° 62° (ENE) 1,035 3.9 -15.9°
Enters shadow 19:35:14 27° 116° (ESE) 1,400 4.3 -16.3°
